[[{"header":{"parameterUnit":"m.s-1","parameterCategory":1,"la1":30.2991,"la2":30.254,"lo1":-89.0895,"lo2":-89.0444,"dy":0.0017,"dx":0.0017,"nx":28,"ny":28,"refTime":"2024-02-10T03:00:00:Z","depth":0,"parameterNumber":2,"parameterNumberName":"U-component_of_WINDS"},"data":[0,0,0,0,0,0,0,0,0,0,0,0,0,0,0,0,0,0,0,0,0,0,0,0,0,0,0,0,0,0,0,0,0,0,0,0,0,0,0,0,0,0,0,0,0,0,0,0,0,0,0,0,0,0,0,0,0,0,-3.4876,-3.4877,0,-3.498,-3.4981,-3.4983,-3.4958,-3.4956,-3.4953,-3.4952,-3.5056,-3.5061,-3.5065,0,0,0,0,0,0,0,0,0,0,0,0,0,-3.4653,-3.4657,-3.4875,-3.4877,-3.4878,-3.498,-3.4981,-3.4983,-3.4958,-3.4955,-3.4953,-3.4951,-3.5055,-3.506,-3.5066,0,0,0,0,0,0,0,0,0,0,0,0,0,-3.4753,-3.4658,-3.4875,-3.4878,-3.4879,-3.498,-3.4981,-3.4983,-3.4958,-3.4955,-3.4952,-3.495,-3.5053,-3.506,-3.5067,-3.517,0,0,-3.5088,-3.5091,0,0,0,0,0,0,0,0,-3.4747,-3.4761,-3.4876,-3.4878,-3.488,-3.4953,-3.4941,-3.5046,-3.4959,-3.4928,-3.4952,-3.4948,-3.5024,-3.5033,-3.5059,-3.5175,-3.5179,-3.5089,-3.5093,-3.5096,-3.5098,0,0,0,0,0,0,0,-3.474,-3.4756,-3.4917,-3.4878,-3.488,-3.4874,-3.4884,-3.4961,-3.4992,-3.4931,-3.4929,-3.4942,-3.5024,-3.5053,-3.5062,-3.5181,-3.5088,-3.5095,-3.5099,-3.5102,-3.5387,-3.539,0,0,0,0,0,0,-3.4732,-3.475,-3.4913,-3.492,-3.4805,-3.488,-3.4892,-3.4932,-3.4991,-3.4997,-3.4944,-3.494,-3.5042,-3.5054,-3.5065,-3.5191,-3.5096,-3.5102,-3.5106,-3.5384,-3.5388,-3.5392,0,0,0,0,0,0,-3.4727,-3.4747,-3.4909,-3.4835,-3.4855,-3.4887,-3.4932,-3.4936,-3.4964,-3.5001,-3.5006,-3.4968,-3.504,-3.5055,-3.5145,-3.5194,-3.5105,-3.5112,-3.538,-3.5385,-3.539,-3.5442,0,0,0,0,0,0,-3.4721,-3.4745,-3.4785,-3.4836,-3.4859,-3.4987,-3.4935,-3.494,-3.4977,-3.4972,-3.5025,-3.503,-3.5039,-3.5134,-3.5151,-3.5202,-3.5117,-3.5376,-3.5382,-3.5388,-3.5436,-3.5448,-3.5458,0,0,0,0,0,-3.4713,-3.4795,-3.4787,-3.4807,-3.491,-3.499,-3.5003,-3.5013,-3.4981,-3.5021,-3.5045,-3.5029,-3.5186,-3.5144,-3.5163,-3.5216,-3.5372,-3.538,-3.5388,-3.5431,-3.5445,-3.5458,0,0,0,0,0,0,-3.4747,-3.4801,-3.4794,-3.4894,-3.4938,-3.4986,-3.5037,-3.5028,-3.5081,-3.5075,-3.5083,-3.5095,-3.5186,-3.521,-3.5162,-3.5319,-3.5274,-3.5286,-3.53,-3.5315,-3.5326,-3.5318,-3.5123,0,0,0,0,0,-3.4767,-3.4828,-3.4872,-3.4957,-3.4979,-3.5004,-3.504,-3.5043,-3.5088,-3.5106,-3.5137,-3.5181,-3.524,-3.5279,-3.5335,-3.5439,-3.545,-3.5485,-3.5497,-3.5506,-3.5516,-3.5573,-3.5589,-3.5417,-3.5417,-3.5417,0,0,-3.4807,-3.4845,-3.4882,-3.4964,-3.4999,-3.5062,-3.502,-3.5088,-3.5135,-3.5116,-3.5203,-3.5227,-3.5276,-3.5374,-3.5418,-3.5396,-3.5566,-3.5516,-3.5523,-3.5528,-3.5582,-3.5599,-3.5613,-3.5422,-3.5421,-3.542,0,0,-3.4913,-3.4948,-3.5022,-3.5058,-3.5111,-3.5127,-3.5145,-3.5195,-3.5211,-3.5298,-3.5286,-3.5341,-3.5443,-3.5479,-3.5511,-3.5633,-3.562,-3.5651,-3.571,-3.5765,-3.5779,-3.5791,-3.5834,-3.5849,-3.5661,-3.5661,-3.5661,0,-3.4956,-3.5052,-3.5061,-3.5132,-3.5168,-3.5156,-3.5231,-3.5265,-3.5334,-3.5359,-3.5334,-3.5463,-3.5495,-3.5601,-3.563,-3.5657,-3.5677,-3.5644,-3.5776,-3.5788,-3.58,-3.5841,-3.5857,-3.5664,-3.5664,-3.5663,-3.5663,0,-3.5102,-3.5169,-3.5223,-3.529,-3.5333,-3.5405,-3.5426,-3.5468,-3.5468,-3.5487,-3.5576,-3.5615,-3.568,-3.5705,-3.5705,-3.5811,-3.5796,-3.5774,-3.5729,-3.5819,-3.5858,-3.5874,-3.5669,-3.5668,-3.5667,-3.5666,0,0,-3.5231,-3.5305,-3.5325,-3.5356,-3.5414,-3.5465,-3.5537,-3.5601,-3.5637,-3.5685,-3.5746,-3.5833,-3.5813,-3.5849,-3.5854,-3.5903,-3.5997,-3.5874,-3.5876,-3.5895,-3.6116,-3.6132,-3.615,-3.5989,-3.5992,-3.5994,-3.6111,0,-3.5342,-3.547,-3.5482,-3.5596,-3.5658,-3.5648,-3.571,-3.5753,-3.5773,-3.5828,-3.585,-3.5912,-3.5881,-3.5902,-3.595,-3.5975,-3.6041,-3.5967,-3.6044,-3.6047,-3.6032,-3.617,-3.6187,-3.6296,-3.6127,-3.6129,-3.6131,0,-3.5489,-3.5542,-3.5663,-3.5714,-3.574,-3.5797,-3.5857,-3.591,-3.5958,-3.5969,-3.601,-3.6008,-3.6082,-3.6035,-3.6137,-3.6086,-3.6119,-3.6136,-3.6141,-3.6147,-3.6094,-3.618,-3.633,-3.6346,-3.6155,-3.6153,-3.6152,0,-3.557,-3.5673,-3.5759,-3.5786,-3.5847,-3.5887,-3.5914,-3.5959,-3.5998,-3.605,-3.6075,-3.6136,-3.6168,-3.6215,-3.6229,-3.6194,-3.6331,-3.6285,-3.6342,-3.6342,-3.637,-3.6368,-3.6527,-3.6392,-3.6392,-3.6392,-3.6391,0,-3.5693,-3.5767,-3.5797,-3.5849,-3.5932,-3.5945,-3.6027,-3.6052,-3.6093,-3.615,-3.6145,-3.6198,-3.6215,-3.6271,-3.6283,-3.6365,-3.638,-3.6391,-3.6393,-3.6391,-3.639,-3.6412,-3.6405,-3.6396,-3.6395,-3.6394,-3.6394,0,-3.5798,-3.5821,-3.5914,-3.5965,-3.5979,-3.6038,-3.6082,-3.6133,-3.6152,-3.6225,-3.6243,-3.6273,-3.634,-3.6359,-3.6439,-3.6447,-3.6543,-3.6539,-3.6527,-3.6527,-3.6583,-3.6577,-3.6761,-3.6786,-3.6636,-3.6637,-3.6638,0,-3.5874,-3.5931,-3.5989,-3.6028,-3.6057,-3.6119,-3.6158,-3.6173,-3.6215,-3.6275,-3.6318,-3.6384,-3.6437,-3.6544,-3.6573,-3.6633,-3.663,-3.669,-3.6639,-3.6636,-3.6631,-3.6627,-3.6632,-3.67,-3.6701,-3.6703,-3.6704,0,-3.6007,-3.6016,-3.6073,-3.6136,-3.6183,-3.6233,-3.628,-3.6312,-3.6333,-3.638,-3.6448,-3.649,-3.6572,-3.6637,-3.6699,-3.6727,-3.6719,-3.672,-3.6736,-3.6734,-3.6725,-3.6731,-3.6553,-3.6715,-3.6714,-3.6713,-3.6713,-3.6712,-3.61,-3.615,-3.6199,-3.6264,-3.6302,-3.6346,-3.6397,-3.6424,-3.6481,-3.655,-3.6555,-3.6629,-3.6677,-3.6759,-3.679,-3.6848,-3.683,-3.6854,-3.686,-3.6865,-3.687,-3.6717,-3.6859,-3.6859,-3.6859,-3.6858,-3.6858,0,-3.6232,-3.6263,-3.6323,-3.639,-3.6441,-3.6431,-3.6483,-3.6526,-3.6592,-3.6637,-3.669,-3.6769,-3.6833,-3.6868,-3.6931,-3.6971,-3.6969,-3.6987,-3.6984,-3.699,-3.6882,-3.6861,-3.6987,-3.6987,-3.6987,-3.6987,-3.6987,-3.6987,-3.6307,-3.6392,-3.6407,-3.6511,-3.6542,-3.6615,-3.6646,-3.6687,-3.6724,-3.6812,-3.6866,-3.6889,-3.693,-3.6996,-3.7054,-3.7063,-3.7086,-3.7106,-3.7113,-3.7011,-3.6998,-3.6985,-3.6966,-3.7111,-3.7112,-3.7216,-3.7217,-3.7218]},{"header":{"parameterUnit":"m.s-1","parameterCategory":1,"la1":30.2991,"la2":30.254,"lo1":-89.0895,"lo2":-89.0444,"dy":0.0017,"dx":0.0017,"nx":28,"ny":28,"refTime":"2024-02-10T03:00:00:Z","depth":0,"parameterNumber":3,"parameterNumberName":"V-component_of_WINDS"},"data":[0,0,0,0,0,0,0,0,0,0,0,0,0,0,0,0,0,0,0,0,0,0,0,0,0,0,0,0,0,0,0,0,0,0,0,0,0,0,0,0,0,0,0,0,0,0,0,0,0,0,0,0,0,0,0,0,0,0,-0.0835,-0.0835,0,-0.077,-0.0769,-0.0768,-0.0689,-0.0688,-0.0687,-0.0686,-0.0621,-0.0621,-0.062,0,0,0,0,0,0,0,0,0,0,0,0,0,-0.0895,-0.0894,-0.0835,-0.0835,-0.0834,-0.077,-0.0769,-0.0768,-0.0689,-0.0688,-0.0686,-0.0685,-0.0622,-0.0621,-0.062,0,0,0,0,0,0,0,0,0,0,0,0,0,-0.0853,-0.0894,-0.0836,-0.0787,-0.0782,-0.077,-0.0769,-0.0768,-0.069,-0.0688,-0.0686,-0.0684,-0.0622,-0.0621,-0.062,-0.0652,0,0,-0.0618,-0.0617,0,0,0,0,0,0,0,0,-0.0856,-0.0851,-0.0795,-0.079,-0.0784,-0.0736,-0.0766,-0.0729,-0.069,-0.0725,-0.0686,-0.0683,-0.0661,-0.0657,-0.0649,-0.0649,-0.0646,-0.0618,-0.0617,-0.0617,-0.0616,0,0,0,0,0,0,0,-0.0859,-0.0853,-0.081,-0.0794,-0.0788,-0.0769,-0.0761,-0.0759,-0.0704,-0.0722,-0.0716,-0.0709,-0.0658,-0.065,-0.0647,-0.0645,-0.0618,-0.0617,-0.0616,-0.0616,-0.0669,-0.067,0,0,0,0,0,0,-0.0868,-0.0856,-0.0812,-0.0808,-0.0816,-0.0769,-0.076,-0.0753,-0.0704,-0.0695,-0.0711,-0.0705,-0.0652,-0.0648,-0.0644,-0.0678,-0.0617,-0.0616,-0.0615,-0.0667,-0.0669,-0.0671,0,0,0,0,0,0,-0.087,-0.0865,-0.0814,-0.083,-0.0822,-0.077,-0.0763,-0.0753,-0.0745,-0.0696,-0.0686,-0.0712,-0.065,-0.0645,-0.065,-0.0675,-0.0616,-0.0615,-0.0664,-0.0667,-0.067,-0.0747,0,0,0,0,0,0,-0.0872,-0.0866,-0.0877,-0.0831,-0.0822,-0.0821,-0.0764,-0.0753,-0.0743,-0.0736,-0.0694,-0.0686,-0.0649,-0.0652,-0.065,-0.0673,-0.0614,-0.0662,-0.0666,-0.0669,-0.0742,-0.0752,-0.076,0,0,0,0,0,-0.0874,-0.0902,-0.0878,-0.0873,-0.0835,-0.0823,-0.0817,-0.0773,-0.0745,-0.0756,-0.0725,-0.0687,-0.0673,-0.0653,-0.065,-0.0673,-0.066,-0.0665,-0.0669,-0.0738,-0.075,-0.076,0,0,0,0,0,0,-0.0954,-0.0895,-0.0868,-0.0882,-0.0858,-0.0809,-0.0822,-0.0788,-0.0772,-0.0766,-0.0713,-0.0704,-0.0716,-0.0695,-0.0674,-0.0701,-0.0661,-0.0665,-0.0714,-0.0726,-0.0735,-0.074,-0.0613,0,0,0,0,0,-0.0973,-0.0967,-0.0917,-0.0934,-0.0923,-0.0875,-0.0868,-0.0836,-0.0809,-0.0799,-0.0768,-0.0744,-0.0734,-0.0729,-0.0717,-0.0738,-0.0728,-0.0753,-0.0762,-0.077,-0.0774,-0.0784,-0.0794,-0.0685,-0.0685,-0.0685,0,0,-0.1012,-0.098,-0.098,-0.0949,-0.0926,-0.0923,-0.0867,-0.0865,-0.0862,-0.0799,-0.0801,-0.0778,-0.0748,-0.0762,-0.0766,-0.0745,-0.0802,-0.0775,-0.0782,-0.0781,-0.0789,-0.0799,-0.0809,-0.0688,-0.0687,-0.0687,0,0,-0.1082,-0.1057,-0.1068,-0.1046,-0.1012,-0.098,-0.0983,-0.094,-0.0921,-0.0923,-0.0875,-0.0871,-0.0855,-0.0835,-0.0824,-0.0886,-0.0851,-0.0883,-0.0932,-0.0942,-0.0951,-0.0958,-0.0981,-0.0989,-0.0887,-0.0888,-0.0888,0,-0.1135,-0.1127,-0.1078,-0.1079,-0.1067,-0.1009,-0.102,-0.1002,-0.0966,-0.096,-0.0936,-0.0914,-0.089,-0.0898,-0.0913,-0.0905,-0.0907,-0.0888,-0.0954,-0.096,-0.0967,-0.0987,-0.0996,-0.0892,-0.0891,-0.0891,-0.0891,0,-0.1194,-0.1189,-0.1202,-0.1168,-0.1158,-0.1164,-0.1117,-0.1112,-0.1081,-0.1052,-0.1054,-0.1023,-0.1004,-0.1003,-0.0973,-0.1007,-0.0995,-0.0963,-0.0922,-0.0982,-0.1001,-0.1008,-0.0898,-0.0896,-0.0895,-0.0894,0,0,-0.1312,-0.1251,-0.1256,-0.124,-0.1199,-0.1194,-0.1198,-0.1178,-0.1175,-0.1153,-0.1155,-0.1143,-0.1113,-0.1099,-0.1067,-0.1076,-0.1127,-0.1043,-0.1041,-0.106,-0.1163,-0.1187,-0.1197,-0.1103,-0.1105,-0.1106,-0.1165,0,-0.1374,-0.1376,-0.1332,-0.1347,-0.1341,-0.1286,-0.1289,-0.1265,-0.1237,-0.1229,-0.1199,-0.1191,-0.1153,-0.1144,-0.115,-0.112,-0.1147,-0.1115,-0.1106,-0.1106,-0.1115,-0.1206,-0.1232,-0.129,-0.1172,-0.1173,-0.1174,0,-0.1447,-0.1427,-0.1441,-0.1399,-0.1395,-0.1399,-0.1376,-0.137,-0.1341,-0.132,-0.1305,-0.1267,-0.1269,-0.123,-0.1231,-0.121,-0.1204,-0.1188,-0.1189,-0.1187,-0.1144,-0.1207,-0.1307,-0.1316,-0.1185,-0.1184,-0.1183,0,-0.1532,-0.1509,-0.1514,-0.1502,-0.1453,-0.1457,-0.1436,-0.1406,-0.1396,-0.1378,-0.1371,-0.1353,-0.1344,-0.1331,-0.129,-0.1265,-0.1297,-0.1254,-0.128,-0.1282,-0.129,-0.129,-0.1391,-0.1286,-0.1286,-0.1285,-0.1285,0,-0.1605,-0.1616,-0.1551,-0.1555,-0.1565,-0.1515,-0.1527,-0.1501,-0.1474,-0.1472,-0.1423,-0.1423,-0.1368,-0.1362,-0.133,-0.1336,-0.1332,-0.1316,-0.1308,-0.1321,-0.1323,-0.1316,-0.1311,-0.1288,-0.1287,-0.1287,-0.1286,0,-0.1702,-0.1659,-0.1661,-0.1614,-0.1602,-0.1612,-0.1572,-0.1573,-0.1543,-0.1541,-0.1537,-0.149,-0.1479,-0.1437,-0.1417,-0.1395,-0.1413,-0.1396,-0.1422,-0.1417,-0.1446,-0.1444,-0.1546,-0.1557,-0.1445,-0.1446,-0.1447,0,-0.1752,-0.1758,-0.1712,-0.1706,-0.1688,-0.168,-0.167,-0.1621,-0.1613,-0.158,-0.1586,-0.1571,-0.1557,-0.1544,-0.1508,-0.1492,-0.1475,-0.1512,-0.1472,-0.1485,-0.1476,-0.1476,-0.1476,-0.152,-0.1522,-0.1523,-0.1524,0,-0.1845,-0.1823,-0.181,-0.179,-0.1779,-0.1761,-0.174,-0.1739,-0.1684,-0.1678,-0.1666,-0.1655,-0.1634,-0.1621,-0.1599,-0.1579,-0.1543,-0.1537,-0.1542,-0.1555,-0.1571,-0.1563,-0.1446,-0.1535,-0.1533,-0.1533,-0.1532,-0.1532,-0.1919,-0.1923,-0.189,-0.1877,-0.1856,-0.1838,-0.1837,-0.1806,-0.1795,-0.1773,-0.1745,-0.1737,-0.1708,-0.1675,-0.1658,-0.1652,-0.1632,-0.164,-0.1642,-0.1644,-0.1651,-0.1571,-0.1648,-0.1648,-0.1647,-0.1647,-0.1647,0,-0.201,-0.1986,-0.1975,-0.1947,-0.1937,-0.1902,-0.1878,-0.1872,-0.1865,-0.1841,-0.1828,-0.1815,-0.1801,-0.1764,-0.1748,-0.175,-0.1733,-0.1747,-0.1747,-0.1743,-0.167,-0.1667,-0.1761,-0.1761,-0.1761,-0.1761,-0.1761,-0.1761,-0.2056,-0.206,-0.2034,-0.2027,-0.2004,-0.1995,-0.1983,-0.1966,-0.1947,-0.1934,-0.1922,-0.1898,-0.1869,-0.1849,-0.1836,-0.1826,-0.1822,-0.1842,-0.1826,-0.1759,-0.1748,-0.1738,-0.1734,-0.1841,-0.1842,-0.19,-0.19,-0.1901]}]]